Springfield, VT

9:06 AM EDT on September 26, 2017 (GMT -0400)
Hartness State

Weather History for KVSF - November, 2013

Change the Weather History Date:

Saturday, November 30, 2013

  Actual Average Record
Temperature  
Mean Temperature 15 °F 32 °F  
Max Temperature 27 °F 40 °F 62 °F (2006)
Min Temperature 3 °F 24 °F 3 °F (2013)
Degree Days  
Heating Degree Days 50 33  
Month to date heating degree days 925 833  
Since 1 July heating degree days 1700 1643  
Cooling Degree Days 0 0  
Month to date cooling degree days 0  
Year to date cooling degree days 345  
Moisture  
Dew Point 6 °F    
Average Humidity 63    
Maximum Humidity 88    
Minimum Humidity 37    
Precipitation  
Precipitation 0.00 in 0.14 in 1.27 in (2005)
Month to date precipitation 2.97 4.03  
Year to date precipitation 35.41 40.58  
Sea Level Pressure  
Sea Level Pressure 30.66 in    
Wind  
Wind Speed 3 mph (SSE)    
Max Wind Speed 13 mph    
Max Gust Speed 17 mph    
Visibility 10 miles    
Events      
T = Trace of Precipitation, MM = Missing Value Source: NWS Daily Summary

Daily Weather History Graph

Daily Weather History Graph

Search for Another Location

Airport or City:

Trip Planner

Search our weather history database for the weather conditions in past years. The results will help you decide how hot, cold, wet, or windy it might be!

Date:

Astronomy

Nov. 30, 2013 Rise Set
Actual Time 7:01 AM EST 4:15 PM EST
Civil Twilight 6:29 AM EST 4:47 PM EST
Nautical Twilight 5:54 AM EST 5:23 PM EST
Astronomical Twilight 5:20 AM EST 5:57 PM EST
Moon 4:05 AM EST (11/30) 2:41 PM EST (11/30)
Length of Visible Light 10h 17m
Length of Day
9h 13m
Waning Crescent, 7% of the Moon is Illuminated
Nov 30
Waning Crescent
Dec 2
New
Dec 9
First Quarter
Dec 17
Full
Dec 25
Last Quarter

Hourly Weather History & Observations

Time (EST) Temp. Windchill Dew Point Humidity Pressure Visibility Wind Dir Wind Speed Gust Speed Precip Events Conditions
12:54 AM 7.0 °F - 3.9 °F 87% 30.78 in 10.0 mi Calm Calm - N/A   Clear
1:54 AM 6.1 °F - 3.0 °F 87% 30.80 in 10.0 mi Calm Calm - N/A   Clear
2:54 AM 6.1 °F - 1.9 °F 83% 30.80 in 10.0 mi Calm Calm - N/A   Clear
3:54 AM 5.0 °F - 1.9 °F 87% 30.81 in 10.0 mi Calm Calm - N/A   Clear
4:54 AM 3.9 °F - -0.0 °F 84% 30.81 in 10.0 mi Calm Calm - N/A   Clear
5:54 AM 3.0 °F - -0.0 °F 87% 30.82 in 10.0 mi Calm Calm - N/A   Clear
6:54 AM 3.9 °F - -0.0 °F 84% 30.83 in 10.0 mi Calm Calm - N/A   Clear
7:54 AM 5.0 °F - 1.0 °F 84% 30.84 in 10.0 mi Calm Calm - N/A   Clear
8:54 AM 9.0 °F - 5.0 °F 84% 30.83 in 10.0 mi Calm Calm - N/A   Clear
9:54 AM 14.0 °F - 8.1 °F 77% 30.81 in 10.0 mi Calm Calm - N/A   Clear
10:54 AM 19.0 °F - 9.0 °F 65% 30.77 in 10.0 mi Calm Calm - N/A   Clear
11:54 AM 23.0 °F 18.4 °F 7.0 °F 50% 30.72 in 10.0 mi South 3.5 mph - N/A   Clear
12:54 PM 25.0 °F 17.1 °F 3.9 °F 41% 30.68 in 10.0 mi Variable 6.9 mph - N/A   Clear
1:54 PM 26.1 °F 18.4 °F 3.0 °F 37% 30.64 in 10.0 mi South 6.9 mph - N/A   Clear
2:54 PM 26.1 °F 17.6 °F 6.1 °F 43% 30.61 in 10.0 mi South 8.1 mph - N/A   Overcast
3:54 PM 27.0 °F 21.6 °F 7.0 °F 43% 30.60 in 10.0 mi South 4.6 mph - N/A   Overcast
4:54 PM 26.1 °F 21.9 °F 8.1 °F 47% 30.59 in 10.0 mi Variable 3.5 mph - N/A   Overcast
5:54 PM 26.1 °F 20.5 °F 9.0 °F 49% 30.57 in 10.0 mi South 4.6 mph - N/A   Mostly Cloudy
6:54 PM 26.1 °F 21.9 °F 10.0 °F 51% 30.56 in 10.0 mi SSE 3.5 mph - N/A   Overcast
7:54 PM 26.1 °F 21.9 °F 10.0 °F 51% 30.52 in 10.0 mi SE 3.5 mph - N/A   Overcast
8:54 PM 26.1 °F 18.4 °F 10.9 °F 53% 30.48 in 10.0 mi South 6.9 mph - N/A   Overcast
9:54 PM 26.1 °F 18.4 °F 10.0 °F 51% 30.47 in 10.0 mi Variable 6.9 mph - N/A   Mostly Cloudy
10:54 PM 26.1 °F 21.9 °F 10.0 °F 51% 30.44 in 10.0 mi SE 3.5 mph - N/A   Scattered Clouds
11:52 PM 26.6 °F - 12.2 °F 55% 30.39 in 10.0 mi Calm Calm - N/A   Overcast
11:54 PM 27.0 °F - 12.0 °F 53% 30.42 in 10.0 mi Calm Calm - N/A   Overcast